User: anonymous   Login
Location: Dompnac
(44.5644°N, 4.1026°E)
Time: 21:52:10
(UTC+00:00)
Language:

USA 234 - Orbit

View from above orbital plane
View from above orbital plane
View from above satellite
View from above satellite

Ground track
Ground track

The orbit data is extracted from the following two-line orbital elements,

1 38109U 12014A   21108.10893592 0.00000000  00000-0  00000-0 0    01
2 38109 122.9958  22.7505 0002002 141.1750 218.8250 13.41427216    00
Epoch (UTC): 18 April 2021 02:36:52
Eccentricity: 0.0002002
inclination: 122.9958°
perigee height: 1102 km
apogee height: 1105 km
right ascension of ascending node: 22.7505°
argument of perigee: 141.1750°
revolutions per day: 13.41427216
mean anomaly at epoch: 218.8250°
orbit number at epoch: 0

The dashed part of the orbit path shows where the satellite is in the earth's shadow,  

DLR